Station Historical Data
Daily Summary for July 27, 2017 Units:  Metric    English   Both
« Previous Day
Next Day »
Daily Weekly Monthly Yearly Custom
  High: Low: Average:
Temperature: 27.7 °C 19.5 °C 22.7 °C
Dew Point: 19.8 °C 15.8 °C 18.2 °C
Humidity: 91% 55% 77%
Wind Speed: 11.3km/h 0km/h 1.6km/h
Wind Gust: 12.9km/h - -
Wind- - SW
Pressure: 1015.8 hPa 1010.4 hPa -
Precipitation: 0 mm    
Historical Graphs
 
 
Tabular Data for July 27, 2017
Time Temperature Dew Point Pressure Wind Wind Speed Wind Gust Humidity Rainfall Rate (Hourly)
00:00 20.7 °C 15.9 °C 1015.8 hPa SW 3.2 km/h 8 km/h 74% 0 mm
00:05 20.6 °C 15.8 °C 1015.5 hPa Calm   1.6 km/h 74% 0 mm
00:10 20.6 °C 15.9 °C 1015.1 hPa SSW 4.8 km/h 6.4 km/h 75% 0 mm
00:15 20.6 °C 16 °C 1015.1 hPa SW 1.6 km/h 8 km/h 75% 0 mm
00:20 20.6 °C 15.9 °C 1015.1 hPa SW 1.6 km/h 8 km/h 75% 0 mm
00:25 20.6 °C 15.9 °C 1015.1 hPa Calm   4.8 km/h 75% 0 mm
00:30 20.6 °C 15.9 °C 1015.1 hPa South 8 km/h 9.7 km/h 75% 0 mm
00:35 20.6 °C 16 °C 1015.1 hPa SSW 3.2 km/h 9.7 km/h 75% 0 mm
00:40 20.6 °C 15.9 °C 1015.1 hPa Calm   6.4 km/h 75% 0 mm
00:45 20.6 °C 16 °C 1015.1 hPa SSW 1.6 km/h 8 km/h 75% 0 mm
00:50 20.7 °C 15.9 °C 1015.1 hPa SSW 3.2 km/h 8 km/h 74% 0 mm
00:55 20.7 °C 15.9 °C 1014.8 hPa SSW 3.2 km/h 6.4 km/h 74% 0 mm
01:00 20.7 °C 16.1 °C 1015.1 hPa Calm   4.8 km/h 75% 0 mm
01:05 20.7 °C 16.1 °C 1015.1 hPa Calm     75% 0 mm
01:10 20.7 °C 16.1 °C 1015.1 hPa Calm     75% 0 mm
01:15 20.6 °C 16.2 °C 1015.1 hPa Calm     76% 0 mm
01:20 20.5 °C 16.3 °C 1015.1 hPa Calm     77% 0 mm
01:25 20.5 °C 16.3 °C 1015.1 hPa Calm     77% 0 mm
01:30 20.4 °C 16.2 °C 1015.1 hPa Calm     77% 0 mm
01:35 20.4 °C 16.4 °C 1015.1 hPa Calm     78% 0 mm
01:40 20.4 °C 16.4 °C 1015.1 hPa Calm     78% 0 mm
01:45 20.3 °C 16.5 °C 1015.1 hPa Calm     79% 0 mm
01:50 20.3 °C 16.5 °C 1015.1 hPa Calm     79% 0 mm
01:55 20.3 °C 16.5 °C 1015.1 hPa Calm     79% 0 mm
02:00 20.3 °C 16.7 °C 1014.8 hPa Calm     80% 0 mm
02:05 20.3 °C 16.7 °C 1015.1 hPa Calm   6.4 km/h 80% 0 mm
02:10 20.3 °C 16.8 °C 1015.1 hPa Calm   4.8 km/h 80% 0 mm
02:15 20.3 °C 16.7 °C 1014.8 hPa SSW 1.6 km/h 4.8 km/h 80% 0 mm
02:20 20.3 °C 16.9 °C 1014.8 hPa Calm   3.2 km/h 81% 0 mm
02:25 20.3 °C 16.9 °C 1014.8 hPa Calm   4.8 km/h 81% 0 mm
02:30 20.2 °C 16.8 °C 1014.8 hPa Calm     81% 0 mm
02:35 20.1 °C 16.7 °C 1014.8 hPa Calm     81% 0 mm
02:40 20.1 °C 16.9 °C 1014.4 hPa Calm     82% 0 mm
02:45 19.9 °C 16.8 °C 1014.4 hPa Calm     82% 0 mm
02:50 19.9 °C 16.8 °C 1014.4 hPa Calm     82% 0 mm
02:55 19.9 °C 16.8 °C 1014.1 hPa Calm   1.6 km/h 82% 0 mm
03:00 19.9 °C 16.7 °C 1014.1 hPa Calm   3.2 km/h 82% 0 mm
03:05 19.9 °C 16.7 °C 1014.1 hPa SSW 1.6 km/h 3.2 km/h 82% 0 mm
03:10 19.8 °C 16.7 °C 1014.1 hPa Calm     82% 0 mm
03:15 19.8 °C 16.7 °C 1014.1 hPa Calm     82% 0 mm
03:20 19.8 °C 16.7 °C 1014.1 hPa Calm     82% 0 mm
03:25 19.8 °C 16.6 °C 1014.1 hPa Calm     82% 0 mm
03:30 19.7 °C 16.6 °C 1014.1 hPa Calm     82% 0 mm
03:35 19.7 °C 16.8 °C 1014.1 hPa Calm     83% 0 mm
03:40 19.7 °C 16.7 °C 1014.1 hPa Calm     83% 0 mm
03:45 19.7 °C 16.7 °C 1013.8 hPa Calm     83% 0 mm
03:50 19.7 °C 16.8 °C 1013.8 hPa Calm     83% 0 mm
03:55 19.7 °C 16.8 °C 1013.8 hPa Calm     83% 0 mm
04:00 19.7 °C 16.8 °C 1013.8 hPa Calm     83% 0 mm
04:05 19.7 °C 16.7 °C 1014.1 hPa Calm     83% 0 mm
04:10 19.7 °C 16.7 °C 1013.8 hPa Calm     83% 0 mm
04:15 19.7 °C 16.9 °C 1013.8 hPa Calm     84% 0 mm
04:20 19.7 °C 16.9 °C 1014.1 hPa Calm     84% 0 mm
04:25 19.7 °C 16.9 °C 1014.1 hPa Calm     84% 0 mm
04:30 19.7 °C 16.9 °C 1014.1 hPa Calm     84% 0 mm
04:35 19.7 °C 16.9 °C 1014.1 hPa Calm     84% 0 mm
04:40 19.7 °C 16.9 °C 1014.1 hPa Calm     84% 0 mm
04:45 19.7 °C 16.9 °C 1014.1 hPa Calm     84% 0 mm
04:50 19.7 °C 17.1 °C 1014.1 hPa Calm     85% 0 mm
04:55 19.6 °C 17 °C 1014.1 hPa Calm     85% 0 mm
05:00 19.6 °C 16.9 °C 1014.4 hPa Calm     85% 0 mm
05:05 19.6 °C 17.2 °C 1014.4 hPa Calm     86% 0 mm
05:10 19.6 °C 17.2 °C 1014.4 hPa Calm     86% 0 mm
05:15 19.6 °C 17.2 °C 1014.1 hPa Calm     86% 0 mm
05:20 19.7 °C 17.3 °C 1014.1 hPa Calm   3.2 km/h 86% 0 mm
05:25 19.8 °C 17.4 °C 1014.4 hPa SSW 1.6 km/h 1.6 km/h 86% 0 mm
05:30 19.9 °C 17.3 °C 1014.4 hPa Calm   3.2 km/h 85% 0 mm
05:35 19.9 °C 17.3 °C 1014.4 hPa Calm     85% 0 mm
05:40 19.9 °C 17.3 °C 1014.4 hPa Calm     85% 0.25 mm
05:45 19.9 °C 17.5 °C 1014.4 hPa Calm     86% 0.25 mm
05:50 19.8 °C 17.4 °C 1014.4 hPa Calm     86% 0.51 mm
05:55 19.7 °C 17.4 °C 1014.4 hPa Calm     87% 0.51 mm
06:00 19.6 °C 17.6 °C 1014.4 hPa Calm     88% 0.76 mm
06:05 19.6 °C 17.5 °C 1014.4 hPa Calm     88% 0.76 mm
06:10 19.5 °C 17.4 °C 1014.4 hPa Calm     88% 1.02 mm
06:15 19.6 °C 17.7 °C 1014.4 hPa Calm     89% 1.02 mm
06:20 19.6 °C 17.7 °C 1014.4 hPa Calm     89% 1.02 mm
06:25 19.5 °C 17.8 °C 1014.4 hPa Calm     90% 1.02 mm
06:30 19.5 °C 17.8 °C 1014.4 hPa Calm     90% 1.02 mm
06:35 19.5 °C 17.8 °C 1014.1 hPa Calm     90% 1.27 mm
06:40 19.5 °C 17.8 °C 1014.1 hPa Calm     90% 1.27 mm
06:45 19.6 °C 18.1 °C 1014.1 hPa Calm     91% 1.27 mm
06:50 19.7 °C 18.2 °C 1014.1 hPa Calm     91% 1.02 mm
06:55 19.6 °C 18.1 °C 1014.1 hPa Calm     91% 1.02 mm
07:00 19.6 °C 18.1 °C 1014.1 hPa Calm     91% 0.76 mm
07:05 19.7 °C 18.2 °C 1014.1 hPa Calm     91% 0.76 mm
07:10 19.8 °C 18.3 °C 1014.1 hPa Calm     91% 0.51 mm
07:15 19.8 °C 18.3 °C 1013.8 hPa Calm     91% 0.51 mm
07:20 19.9 °C 18.4 °C 1014.1 hPa Calm     91% 0.51 mm
07:25 19.9 °C 18.4 °C 1014.1 hPa Calm     91% 0.51 mm
07:30 20.1 °C 18.6 °C 1014.1 hPa Calm     91% 0.51 mm
07:35 20.1 °C 18.6 °C 1014.1 hPa Calm     91% 0.25 mm
07:40 20.2 °C 18.7 °C 1014.1 hPa Calm     91% 0 mm
07:45 20.3 °C 18.8 °C 1014.1 hPa Calm     91% 0 mm
07:50 20.3 °C 18.8 °C 1014.1 hPa Calm     91% 0 mm
07:55 20.2 °C 18.7 °C 1014.1 hPa Calm     91% 0 mm
08:00 20.1 °C 18.4 °C 1014.1 hPa Calm     90% 0 mm
08:05 20.2 °C 18.5 °C 1014.1 hPa Calm     90% 0 mm
08:10 20.2 °C 18.6 °C 1013.8 hPa Calm     90% 0 mm
08:15 20.2 °C 18.6 °C 1013.8 hPa Calm     90% 0 mm
08:20 20.3 °C 18.6 °C 1013.8 hPa Calm     90% 0 mm
08:25 20.3 °C 18.6 °C 1014.1 hPa Calm     90% 0 mm
08:30 20.3 °C 18.4 °C 1014.1 hPa Calm     89% 0 mm
08:35 20.3 °C 18.4 °C 1014.1 hPa Calm     89% 0 mm
08:40 20.4 °C 18.5 °C 1014.1 hPa Calm     89% 0 mm
08:45 20.4 °C 18.6 °C 1014.1 hPa Calm     89% 0 mm
08:50 20.6 °C 18.7 °C 1014.1 hPa Calm     89% 0 mm
08:55 20.7 °C 18.8 °C 1014.1 hPa Calm     89% 0 mm
09:00 20.8 °C 18.7 °C 1014.1 hPa Calm     88% 0 mm
09:05 20.8 °C 18.7 °C 1014.1 hPa Calm     88% 0 mm
09:10 20.8 °C 18.8 °C 1014.1 hPa Calm     88% 0 mm
09:15 20.9 °C 18.8 °C 1013.8 hPa Calm     88% 0 mm
09:20 21.3 °C 19.2 °C 1013.8 hPa Calm     88% 0 mm
09:25 21.3 °C 19.1 °C 1014.1 hPa Calm     87% 0 mm
09:29 21.4 °C 19.2 °C 1013.8 hPa Calm     87% 0 mm
09:35 21.5 °C 19.1 °C 1013.8 hPa Calm     86% 0 mm
09:40 21.7 °C 19.4 °C 1013.8 hPa Calm     87% 0 mm
09:45 21.7 °C 19.1 °C 1013.8 hPa Calm     85% 0 mm
09:50 21.8 °C 19.2 °C 1013.8 hPa West 3.2 km/h 6.4 km/h 85% 0 mm
09:55 21.9 °C 19.1 °C 1013.8 hPa WNW 1.6 km/h 4.8 km/h 84% 0 mm
10:00 21.9 °C 19.1 °C 1013.8 hPa Calm   4.8 km/h 84% 0 mm
10:05 22.1 °C 19.1 °C 1013.8 hPa NW 1.6 km/h 8 km/h 83% 0 mm
10:10 22.3 °C 19.2 °C 1013.8 hPa WNW 1.6 km/h 8 km/h 83% 0 mm
10:15 22.2 °C 18.9 °C 1013.8 hPa WNW 1.6 km/h 8 km/h 82% 0 mm
10:20 22.2 °C 19.2 °C 1013.8 hPa WNW 1.6 km/h 4.8 km/h 83% 0 mm
10:25 22.3 °C 19.1 °C 1013.8 hPa Calm   3.2 km/h 82% 0 mm
10:30 22.3 °C 18.8 °C 1013.8 hPa Calm   6.4 km/h 81% 0 mm
10:35 22.3 °C 19.1 °C 1014.1 hPa WNW 1.6 km/h 6.4 km/h 82% 0 mm
10:39 22.3 °C 18.9 °C 1013.8 hPa Calm   3.2 km/h 81% 0 mm
10:44 22.3 °C 18.3 °C 1013.8 hPa NW 3.2 km/h 6.4 km/h 78% 0 mm
10:49 22.6 °C 18.3 °C 1014.1 hPa NW 4.8 km/h 9.7 km/h 77% 0 mm
10:55 22.8 °C 18.2 °C 1014.1 hPa WNW 4.8 km/h 9.7 km/h 75% 0 mm
10:59 22.7 °C 18.3 °C 1014.1 hPa NW 4.8 km/h 9.7 km/h 76% 0 mm
11:05 22.8 °C 18.4 °C 1013.8 hPa NNW 3.2 km/h 9.7 km/h 76% 0 mm
11:10 22.8 °C 18.4 °C 1013.8 hPa North 6.4 km/h 12.9 km/h 76% 0 mm
11:15 23.2 °C 18.9 °C 1013.8 hPa NNW 6.4 km/h 8 km/h 77% 0 mm
11:20 23.2 °C 18.9 °C 1013.8 hPa NNW 1.6 km/h 8 km/h 77% 0 mm
11:25 22.9 °C 18.7 °C 1013.8 hPa NW 3.2 km/h 9.7 km/h 77% 0 mm
11:29 22.5 °C 18.3 °C 1013.8 hPa NNW 4.8 km/h 9.7 km/h 77% 0 mm
11:35 22.6 °C 18.7 °C 1013.8 hPa North 3.2 km/h 9.7 km/h 79% 0 mm
11:40 22.4 °C 18.4 °C 1013.8 hPa NE 1.6 km/h 8 km/h 78% 0 mm
11:45 22.4 °C 18.6 °C 1013.8 hPa NE 4.8 km/h 12.9 km/h 79% 0 mm
11:49 22.8 °C 18.9 °C 1013.4 hPa Calm   4.8 km/h 79% 0 mm
11:54 22.7 °C 18.6 °C 1013.4 hPa NE 3.2 km/h 8 km/h 78% 0 mm
11:59 22.6 °C 18.7 °C 1013.4 hPa NNE 3.2 km/h 8 km/h 79% 0 mm
12:05 22.5 °C 18.4 °C 1013.4 hPa ENE 3.2 km/h 6.4 km/h 78% 0 mm
12:10 22.8 °C 18.9 °C 1013.4 hPa Calm   8 km/h 79% 0 mm
12:15 22.6 °C 18.5 °C 1013.4 hPa ENE 6.4 km/h 11.3 km/h 78% 0 mm
12:20 22.8 °C 18.7 °C 1013.1 hPa ENE 1.6 km/h 9.7 km/h 78% 0 mm
12:25 23.2 °C 19.2 °C 1013.1 hPa NE 4.8 km/h 9.7 km/h 78% 0 mm
12:30 23.2 °C 19.1 °C 1013.1 hPa ENE 3.2 km/h 9.7 km/h 78% 0 mm
12:35 23.3 °C 18.8 °C 1013.1 hPa ENE 1.6 km/h 8 km/h 76% 0 mm
12:40 23.1 °C 18.8 °C 1013.1 hPa ESE 1.6 km/h 6.4 km/h 77% 0 mm
12:45 23.3 °C 18.9 °C 1013.1 hPa East 1.6 km/h 9.7 km/h 76% 0 mm
12:50 23.2 °C 18.6 °C 1013.1 hPa East 1.6 km/h 4.8 km/h 75% 0 mm
12:55 23.3 °C 18.9 °C 1013.1 hPa East 1.6 km/h 4.8 km/h 76% 0 mm
12:59 23.2 °C 18.7 °C 1013.1 hPa South 3.2 km/h 6.4 km/h 76% 0 mm
13:05 23.1 °C 19 °C 1013.1 hPa Calm   6.4 km/h 78% 0 mm
13:10 23.3 °C 18.6 °C 1013.1 hPa South 3.2 km/h 4.8 km/h 75% 0 mm
13:14 23.5 °C 18.8 °C 1013.1 hPa SSW 3.2 km/h 6.4 km/h 75% 0 mm
13:20 23.4 °C 18.8 °C 1013.1 hPa SW 3.2 km/h 6.4 km/h 75% 0 mm
13:25 23.6 °C 19.1 °C 1013.1 hPa SW 1.6 km/h 6.4 km/h 76% 0 mm
13:30 23.8 °C 18.9 °C 1012.8 hPa SSW 1.6 km/h 4.8 km/h 74% 0 mm
13:34 24.1 °C 18.9 °C 1012.8 hPa SSE 1.6 km/h 6.4 km/h 73% 0 mm
13:40 24.4 °C 19.2 °C 1012.8 hPa South 4.8 km/h 4.8 km/h 73% 0 mm
13:45 24.3 °C 18.9 °C 1012.8 hPa SW 3.2 km/h 8 km/h 72% 0 mm
13:50 24.2 °C 18.6 °C 1012.8 hPa Calm   4.8 km/h 71% 0 mm
13:54 24.3 °C 18.7 °C 1012.8 hPa SSW 1.6 km/h 4.8 km/h 71% 0 mm
14:00 24.5 °C 18.9 °C 1012.4 hPa SSW 3.2 km/h 8 km/h 71% 0 mm
14:04 24.3 °C 18.7 °C 1012.4 hPa SSW 1.6 km/h 8 km/h 71% 0 mm
14:09 24.2 °C 18.6 °C 1012.4 hPa South 1.6 km/h 8 km/h 71% 0 mm
14:14 24.2 °C 18.8 °C 1012.4 hPa SSE 3.2 km/h 6.4 km/h 72% 0 mm
14:20 24.4 °C 19.2 °C 1012.1 hPa South 3.2 km/h 8 km/h 73% 0 mm
14:24 24.6 °C 18.8 °C 1012.4 hPa South 3.2 km/h 9.7 km/h 70% 0 mm
14:29 24.7 °C 18.6 °C 1012.4 hPa SSW 3.2 km/h 9.7 km/h 69% 0 mm
14:35 25.3 °C 19.2 °C 1012.4 hPa SW 3.2 km/h 9.7 km/h 69% 0 mm
14:40 25.2 °C 19.1 °C 1012.4 hPa SW 6.4 km/h 9.7 km/h 69% 0 mm
14:45 25.1 °C 19.2 °C 1012.1 hPa SSW 3.2 km/h 9.7 km/h 70% 0 mm
14:50 25.3 °C 18.9 °C 1012.1 hPa WSW 6.4 km/h 8 km/h 68% 0 mm
14:54 25.3 °C 18.5 °C 1012.1 hPa SSW 4.8 km/h 11.3 km/h 66% 0 mm
15:00 25.3 °C 18.7 °C 1012.1 hPa SW 6.4 km/h 11.3 km/h 67% 0 mm
15:05 25.8 °C 19.2 °C 1012.1 hPa SW 4.8 km/h 9.7 km/h 67% 0 mm
15:10 25.9 °C 19.1 °C 1012.1 hPa WSW 4.8 km/h 12.9 km/h 66% 0 mm
15:14 26.1 °C 18.4 °C 1012.1 hPa WSW 3.2 km/h 11.3 km/h 63% 0 mm
15:19 26.1 °C 18 °C 1012.1 hPa WSW 8 km/h 9.7 km/h 61% 0 mm
15:25 26.8 °C 18.7 °C 1012.1 hPa WSW 6.4 km/h 11.3 km/h 61% 0 mm
15:29 26.8 °C 18.6 °C 1012.1 hPa WNW 6.4 km/h 11.3 km/h 61% 0 mm
15:34 27.2 °C 18.2 °C 1012.1 hPa WNW 3.2 km/h 11.3 km/h 58% 0 mm
15:39 27.3 °C 17.7 °C 1012.1 hPa West 3.2 km/h 9.7 km/h 56% 0 mm
15:45 27.2 °C 17.9 °C 1011.7 hPa West 4.8 km/h 11.3 km/h 57% 0 mm
15:50 26.9 °C 18.2 °C 1011.7 hPa SW 1.6 km/h 11.3 km/h 59% 0 mm
15:55 27.1 °C 18.9 °C 1011.7 hPa WSW 4.8 km/h 11.3 km/h 61% 0 mm
15:59 27.2 °C 18.2 °C 1011.7 hPa West 4.8 km/h 12.9 km/h 58% 0 mm
16:05 27.3 °C 18.6 °C 1011.7 hPa WNW 4.8 km/h 12.9 km/h 59% 0 mm
16:10 27.7 °C 19 °C 1011.7 hPa SW 6.4 km/h 8 km/h 59% 0 mm
16:15 27.6 °C 19.3 °C 1011.7 hPa WNW 3.2 km/h 12.9 km/h 61% 0 mm
16:20 27.4 °C 18.7 °C 1011.7 hPa West 11.3 km/h 11.3 km/h 59% 0 mm
16:24 27.1 °C 18.1 °C 1011.4 hPa West 4.8 km/h 11.3 km/h 58% 0 mm
16:30 27.3 °C 17.7 °C 1011.4 hPa West 4.8 km/h 11.3 km/h 56% 0 mm
16:34 27.1 °C 17.5 °C 1011.4 hPa West 3.2 km/h 9.7 km/h 56% 0 mm
16:39 27.4 °C 18.7 °C 1011.4 hPa West 9.7 km/h 11.3 km/h 59% 0 mm
16:44 27.4 °C 18.2 °C 1011.4 hPa WSW 3.2 km/h 9.7 km/h 57% 0 mm
16:49 27.4 °C 18.1 °C 1011.4 hPa West 4.8 km/h 9.7 km/h 57% 0 mm
16:55 27.6 °C 18.3 °C 1011.4 hPa West 3.2 km/h 11.3 km/h 57% 0 mm
17:00 27.6 °C 18.3 °C 1011.1 hPa WNW 6.4 km/h 11.3 km/h 57% 0 mm
17:04 27.4 °C 18.2 °C 1011.1 hPa SW 11.3 km/h 11.3 km/h 57% 0 mm
17:10 27.6 °C 18.3 °C 1011.1 hPa WSW 6.4 km/h 11.3 km/h 57% 0 mm
17:15 27.4 °C 18.2 °C 1011.1 hPa WSW 4.8 km/h 8 km/h 57% 0 mm
17:20 27.6 °C 19.1 °C 1011.1 hPa Calm   4.8 km/h 60% 0 mm
17:24 27.4 °C 18.2 °C 1011.1 hPa WSW 1.6 km/h 4.8 km/h 57% 0 mm
17:29 27.6 °C 18 °C 1011.1 hPa WSW 1.6 km/h 8 km/h 56% 0 mm
17:34 27.2 °C 17.4 °C 1011.1 hPa SW 3.2 km/h 8 km/h 55% 0 mm
17:39 27.7 °C 19 °C 1010.7 hPa NW 3.2 km/h 4.8 km/h 59% 0 mm
17:44 27.3 °C 17.8 °C 1011.1 hPa Calm   8 km/h 56% 0 mm
17:50 27.3 °C 18.3 °C 1010.7 hPa NE 4.8 km/h 4.8 km/h 58% 0 mm
17:54 27 °C 18.6 °C 1010.7 hPa SE 1.6 km/h 4.8 km/h 60% 0 mm
17:59 26.8 °C 18.4 °C 1010.7 hPa NE 1.6 km/h 4.8 km/h 60% 0 mm
18:04 26.7 °C 18.5 °C 1010.7 hPa Calm   3.2 km/h 61% 0 mm
18:10 26.6 °C 18.2 °C 1010.7 hPa WNW 3.2 km/h 4.8 km/h 60% 0 mm
18:14 26.6 °C 18.4 °C 1010.7 hPa WNW 1.6 km/h 6.4 km/h 61% 0 mm
18:19 26.6 °C 17.6 °C 1010.7 hPa NW 3.2 km/h 6.4 km/h 58% 0 mm
18:24 26.6 °C 18.2 °C 1010.7 hPa NW 3.2 km/h 6.4 km/h 60% 0 mm
18:29 26.8 °C 18.4 °C 1010.7 hPa WNW 3.2 km/h 6.4 km/h 60% 0 mm
18:35 26.7 °C 18.3 °C 1010.4 hPa West 3.2 km/h 6.4 km/h 60% 0 mm
18:40 26.4 °C 18.6 °C 1010.7 hPa WSW 3.2 km/h 6.4 km/h 62% 0 mm
18:44 26.6 °C 18.4 °C 1010.7 hPa Calm   4.8 km/h 61% 0 mm
18:49 26.3 °C 18.4 °C 1010.7 hPa West 3.2 km/h 4.8 km/h 62% 0 mm
18:54 26.2 °C 18.4 °C 1010.7 hPa WSW 1.6 km/h 4.8 km/h 62% 0 mm
18:59 26.1 °C 18.3 °C 1010.7 hPa WSW 1.6 km/h 6.4 km/h 62% 0 mm
19:04 25.9 °C 18.1 °C 1010.7 hPa SW 3.2 km/h 8 km/h 62% 0 mm
19:09 25.9 °C 18.1 °C 1011.1 hPa West 3.2 km/h 8 km/h 62% 0 mm
19:14 25.8 °C 18.3 °C 1011.1 hPa WSW 1.6 km/h 6.4 km/h 63% 0 mm
19:19 25.7 °C 18.1 °C 1011.1 hPa West 3.2 km/h 6.4 km/h 63% 0 mm
19:25 25.6 °C 18.2 °C 1011.1 hPa WSW 3.2 km/h 8 km/h 64% 0 mm
19:30 25.4 °C 18.1 °C 1011.1 hPa WSW 3.2 km/h 8 km/h 64% 0 mm
19:34 25.3 °C 18 °C 1011.1 hPa WSW 3.2 km/h 8 km/h 64% 0 mm
19:40 25.2 °C 18.1 °C 1011.1 hPa WSW 3.2 km/h 8 km/h 65% 0 mm
19:45 25.1 °C 18.1 °C 1011.1 hPa WSW 3.2 km/h 8 km/h 65% 0 mm
19:49 25.1 °C 18 °C 1011.1 hPa WSW 3.2 km/h 8 km/h 65% 0 mm
19:54 25 °C 17.9 °C 1011.1 hPa SW 4.8 km/h 4.8 km/h 65% 0 mm
19:59 24.9 °C 18.2 °C 1011.1 hPa WSW 1.6 km/h 4.8 km/h 66% 0 mm
20:04 24.9 °C 18.2 °C 1011.1 hPa WSW 1.6 km/h 4.8 km/h 66% 0 mm
20:09 24.9 °C 18.1 °C 1011.1 hPa West 3.2 km/h 3.2 km/h 66% 0 mm
20:14 24.8 °C 18 °C 1011.1 hPa West 3.2 km/h 4.8 km/h 66% 0 mm
20:19 24.7 °C 18.2 °C 1011.1 hPa West 1.6 km/h 4.8 km/h 67% 0 mm
20:24 24.6 °C 18.1 °C 1011.4 hPa Calm   4.8 km/h 67% 0 mm
20:29 24.5 °C 17.9 °C 1011.1 hPa Calm     67% 0 mm
20:34 24.4 °C 18.2 °C 1011.1 hPa Calm     68% 0 mm
20:39 24.4 °C 18.1 °C 1011.4 hPa West 6.4 km/h 9.7 km/h 68% 0 mm
20:44 24.3 °C 18.3 °C 1011.4 hPa West 3.2 km/h 9.7 km/h 69% 0 mm
20:49 24.3 °C 18.4 °C 1011.4 hPa WNW 4.8 km/h 8 km/h 70% 0 mm
20:55 24.1 °C 18.7 °C 1011.4 hPa NW 3.2 km/h 8 km/h 72% 0 mm
20:59 23.7 °C 19 °C 1011.4 hPa NW 3.2 km/h 8 km/h 75% 0 mm
21:04 23.5 °C 19 °C 1011.7 hPa NNW 1.6 km/h 9.7 km/h 76% 0 mm
21:09 23.3 °C 19.2 °C 1011.4 hPa NNW 4.8 km/h 8 km/h 78% 0 mm
21:14 23 °C 19.2 °C 1011.4 hPa NNW 3.2 km/h 4.8 km/h 79% 0 mm
21:19 22.9 °C 19.5 °C 1011.4 hPa Calm   6.4 km/h 81% 0 mm
21:24 22.8 °C 19.6 °C 1011.4 hPa Calm   1.6 km/h 82% 0 mm
21:29 22.8 °C 19.6 °C 1011.4 hPa Calm     82% 0 mm
21:34 22.8 °C 19.6 °C 1011.4 hPa Calm     82% 0 mm
21:39 22.8 °C 19.7 °C 1011.7 hPa WNW 3.2 km/h 6.4 km/h 83% 0 mm
21:44 22.8 °C 19.7 °C 1011.7 hPa WNW 1.6 km/h 6.4 km/h 83% 0 mm
21:49 22.7 °C 19.7 °C 1011.4 hPa WNW 1.6 km/h 6.4 km/h 83% 0 mm
21:55 22.7 °C 19.6 °C 1011.7 hPa Calm   3.2 km/h 83% 0 mm
22:00 22.7 °C 19.6 °C 1011.7 hPa Calm   3.2 km/h 83% 0 mm
22:04 22.6 °C 19.8 °C 1011.4 hPa Calm     84% 0 mm
22:09 22.5 °C 19.7 °C 1011.4 hPa Calm     84% 0 mm
22:14 22.4 °C 19.6 °C 1011.4 hPa Calm     84% 0 mm
22:19 22.4 °C 19.6 °C 1011.4 hPa Calm     84% 0 mm
22:24 22.4 °C 19.8 °C 1011.4 hPa Calm     85% 0 mm
22:29 22.4 °C 19.8 °C 1011.4 hPa Calm   3.2 km/h 85% 0 mm
22:30 22.4 °C 19.8 °C 1011.4 hPa Calm   3.2 km/h 85% 0 mm
22:35 22.4 °C 19.8 °C 1011.4 hPa Calm   3.2 km/h 85% 0 mm
22:40 22.4 °C 19.7 °C 1011.4 hPa Calm     85% 0 mm
22:44 22.3 °C 19.7 °C 1011.4 hPa Calm     85% 0 mm
22:49 22.3 °C 19.6 °C 1011.4 hPa Calm     85% 0 mm
22:54 22.3 °C 19.7 °C 1011.4 hPa Calm     85% 0 mm
22:55 22.3 °C 19.7 °C 1011.4 hPa Calm     85% 0 mm
23:05 22.4 °C 19.7 °C 1011.4 hPa Calm     85% 0 mm
23:09 22.4 °C 19.6 °C 1011.4 hPa Calm     84% 0 mm
23:14 22.4 °C 19.6 °C 1011.7 hPa Calm     84% 0 mm
23:19 22.4 °C 19.4 °C 1011.4 hPa Calm     83% 0 mm
23:24 22.5 °C 19.4 °C 1011.4 hPa Calm     83% 0 mm
23:29 22.4 °C 19.2 °C 1011.4 hPa Calm     82% 0 mm
23:34 22.5 °C 19.1 °C 1011.4 hPa Calm   4.8 km/h 81% 0 mm
23:39 22.4 °C 19 °C 1011.4 hPa NE 1.6 km/h 4.8 km/h 81% 0 mm
23:44 22.3 °C 18.9 °C 1011.4 hPa Calm   1.6 km/h 81% 0 mm
23:49 22.2 °C 19 °C 1011.4 hPa Calm     82% 0 mm
23:54 22.2 °C 18.9 °C 1011.7 hPa Calm     82% 0 mm
23:59 22.2 °C 18.9 °C 1011.7 hPa Calm   3.2 km/h 82% 0 mm
Buffalo, New York, USA
Compliments of Weather Underground - 2.5 mb